EW0608 Weather Reports


time (UTC)temp
F
wind
direction
speed
knots
gust
knots
rain 1hr
in
rain 24hr
in
rain mn
in
humidity
%
barometer
mb
20260503210348 62 316 1.7 7.0 0.04 0.32 0.32 29 1013.4
20260503210039 61 334 2.6 7.0 0.04 0.32 0.32 29 1014.0
20260503205837 62 301 2.6 7.0 0.04 0.32 0.32 30 1013.5
20260503205350 61 284 1.7 6.1 0.04 0.32 0.32 30 1013.6
20260503204902 61 140 2.6 6.1 0.04 0.32 0.32 29 1013.7
20260503204555 61 250 1.7 6.1 0.04 0.32 0.32 29 1014.1
20260503204354 62 265 1.7 6.1 0.04 0.32 0.32 28 1013.7
20260503203846 63 78 2.6 6.1 0.04 0.32 0.32 29 1013.8
20260503203336 62 49 1.7 10.4 0.04 0.32 0.32 29 1013.7
20260503203105 61 355 0.9 10.4 0.04 0.32 0.32 30 1014.3
20260503202848 61 303 1.7 10.4 0.04 0.32 0.32 29 1013.8
20260503202345 61 32 3.5 9.6 0.03 0.30 0.30 29 1014.0
20260503201855 62 82 2.6 5.2 0.01 0.28 0.28 29 1013.8
20260503201548 62 283 1.7 7.8 0.01 0.28 0.28 28 1014.4
20260503201346 62 277 2.6 7.8 0.01 0.28 0.28 30 1013.9
20260503200857 62 61 3.5 8.7 0.01 0.28 0.28 30 1013.9
20260503200410 63 299 2.6 7.0 0.01 0.28 0.28 30 1013.9
20260503200059 62 29 3.5 7.8 0.01 0.28 0.28 30 1014.5
20260503195858 62 176 1.7 5.2 0.02 0.28 0.28 29 1014.2
20260503195350 62 325 3.5 6.1 0.02 0.28 0.28 29 1014.1
20260503194842 60 46 3.5 6.1 0.02 0.28 0.28 31 1014.2
20260503194540 59 9 2.6 6.1 0.02 0.28 0.28 30 1014.6
20260503194336 60 60 2.6 6.1 0.02 0.28 0.28 30 1014.2
20260503193849 61 257 1.7 7.0 0.02 0.28 0.28 31 1014.2
20260503193341 60 187 1.7 7.0 0.02 0.28 0.28 31 1014.3
20260503193054 60 205 2.6 9.6 0.02 0.28 0.28 30 1014.9
20260503192853 61 199 4.3 9.6 0.02 0.28 0.28 29 1014.5
20260503192426 62 315 4.3 10.4 0.01 0.27 0.27 29 1014.5
20260503191853 63 55 4.3 10.4 0.01 0.27 0.27 28 1014.6
20260503191546 63 355 3.5 10.4 0.01 0.27 0.27 29 1014.9
20260503191346 63 5 3.5 6.1 0.01 0.27 0.27 29 1014.5
20260503190838 63 284 3.5 7.0 0.01 0.27 0.27 28 1014.6
20260503190352 61 355 2.6 7.0 0.01 0.27 0.27 31 1014.5
20260503190022 61 242 2.6 7.0 0.00 0.26 0.26 31 1015.2
20260503185921 61 283 4.3 6.1 0.00 0.26 0.26 30 1014.7
20260503185347 60 260 3.5 7.8 0.00 0.26 0.26 31 1014.7
20260503184839 60 326 2.6 7.0 0.00 0.26 0.26 30 1014.8
20260503184554 61 240 2.6 7.0 0.00 0.26 0.26 29 1015.4
20260503184353 61 44 3.5 7.0 0.00 0.26 0.26 30 1014.9
20260503183844 61 342 2.6 6.1 0.00 0.26 0.26 30 1014.9
20260503183339 62 331 1.7 5.2 0.00 0.26 0.26 30 1014.9
20260503183011 61 281 2.6 5.2 0.00 0.26 0.26 29 1015.5
20260503182911 63 236 1.7 6.1 0.00 0.26 0.26 29 1015.0
20260503182343 61 329 2.6 7.8 0.00 0.26 0.26 29 1015.0
20260503181836 61 90 2.6 7.8 0.00 0.26 0.26 32 1014.9
20260503181600 61 344 4.3 7.0 0.00 0.26 0.26 29 1015.5
20260503180905 61 300 2.6 6.1 0.00 0.26 0.26 30 1015.1
20260503180357 60 239 2.6 6.1 0.00 0.26 0.26 33 1014.9
20260503180047 59 260 2.6 5.2 0.00 0.26 0.26 29 1015.5
20260503175846 60 67 3.5 6.1 0.00 0.26 0.26 31 1015.1
20260503175338 58 296 3.5 6.1 0.02 0.26 0.26 30 1015.3
20260503174851 58 306 1.7 10.4 0.04 0.26 0.26 31 1015.3
20260503174510 59 345 1.7 10.4 0.05 0.26 0.26 30 1015.8
20260503174403 60 20 2.6 10.4 0.05 0.26 0.26 30 1015.4
20260503173914 59 69 2.6 7.0 0.05 0.26 0.26 32 1015.5
20260503173407 58 329 1.7 7.8 0.05 0.26 0.26 32 1015.4
20260503173051 57 136 3.5 7.8 0.05 0.26 0.26 33 1015.9
20260503172838 57 35 1.7 7.0 0.05 0.26 0.26 32 1015.5
20260503172350 58 266 3.5 9.6 0.06 0.26 0.26 32 1015.6
20260503171843 58 251 3.5 9.6 0.06 0.26 0.26 31 1015.6
20260503171540 58 276 1.7 6.1 0.06 0.26 0.26 31 1016.1
20260503171335 58 115 2.6 7.8 0.06 0.26 0.26 32 1015.8
20260503170847 58 344 3.5 7.8 0.06 0.26 0.26 34 1015.8
20260503170342 56 30 284.2 284.2 0.00 0.00 0.26 34 1015.7
20260503150850 52 344 1.7 5.2 0.03 0.05 0.05 43 1017.1
20260503150343 51 54 0.9 7.8 0.03 0.05 0.05 48 1017.2
20260503081532 36 33 0.0 0.0 0.00 0.00 0.00 89 1015.7
20260503071526 36 33 0.0 0.0 0.00 0.00 0.00 89 1015.2
20260503054518 35 33 0.0 0.0 0.00 0.00 0.00 87 1015.0
20260503053017 35 33 0.0 0.0 0.00 0.00 0.00 86 1015.0
20260503051512 36 33 0.0 0.0 0.00 0.00 0.00 84 1015.1
20260503050010 37 33 0.0 0.0 0.00 0.00 0.00 83 1015.1
20260503045348 37 33 0.0 0.0 0.00 0.00 0.00 82 1014.7
20260503044839 38 33 0.0 0.0 0.00 0.00 0.00 82 1014.8
20260503044604 37 33 0.0 0.0 0.00 0.00 0.00 82 1015.1
20260503044353 38 33 0.0 0.0 0.00 0.00 0.00 81 1014.7
20260503043844 38 33 0.0 0.0 0.00 0.00 0.00 80 1014.7
20260503043336 38 33 0.0 0.0 0.00 0.00 0.00 80 1014.8
20260503043055 38 33 0.0 0.0 0.00 0.00 0.00 79 1015.1
20260503042849 39 33 0.0 0.0 0.00 0.00 0.00 79 1014.7
20260503042342 39 33 0.0 0.0 0.00 0.00 0.00 78 1014.7
20260503041529 39 33 0.0 0.0 0.00 0.00 0.00 78 1015.1
20260503041428 39 33 0.0 0.0 0.00 0.00 0.00 77 1014.8
20260503040836 40 33 0.0 0.0 0.00 0.00 0.00 76 1014.8
20260503040351 40 33 0.0 0.9 0.00 0.00 0.00 75 1014.7
20260503040047 40 33 0.0 0.9 0.00 0.00 0.00 74 1015.1
20260503035843 41 33 0.0 0.9 0.00 0.00 0.00 74 1014.8
20260503035337 41 33 0.0 0.0 0.00 0.00 0.00 74 1014.8
20260503034849 41 33 284.2 284.2 0.00 0.00 0.00 73 1014.6
20260503034542 41 33 0.0 1.7 0.00 0.00 0.00 73 1015.1
20260503034341 41 33 0.0 1.7 0.00 0.00 0.00 73 1014.7
20260503033853 42 33 0.0 0.9 0.00 0.00 0.00 71 1014.7
20260503033344 42 33 0.0 0.9 0.00 0.00 0.00 70 1014.6
20260503033109 42 33 0.0 0.9 0.00 0.00 0.00 70 1015.0
20260503032857 42 33 0.0 0.9 0.00 0.00 0.00 70 1014.6
20260503032348 43 33 0.0 0.9 0.00 0.00 0.00 68 1014.7
20260503031840 43 33 0.0 1.7 0.00 0.00 0.00 68 1014.7
20260503031557 43 33 0.0 1.7 0.00 0.00 0.00 67 1015.1
20260503031354 43 33 0.0 1.7 0.00 0.00 0.00 67 1014.7
20260503030846 43 33 0.0 0.9 0.00 0.00 0.00 67 1014.8
20260503030336 43 33 0.0 0.0 0.00 0.00 0.00 67 1014.8
20260503030052 43 33 0.0 0.9 0.00 0.00 0.00 66 1015.1
20260503025850 44 33 0.0 0.9 0.00 0.00 0.00 66 1014.8
20260503025342 44 33 0.0 1.7 0.00 0.00 0.00 65 1014.8
20260503024855 44 33 0.0 1.7 0.00 0.00 0.00 65 1014.9
20260503024548 44 335 0.0 0.9 0.00 0.00 0.00 64 1015.3
20260503024346 44 335 0.0 0.9 0.00 0.00 0.00 65 1014.9
20260503023839 45 335 0.0 0.9 0.00 0.00 0.00 64 1014.9
20260503023059 45 335 0.0 4.3 0.00 0.00 0.00 62 1015.2
20260503022846 45 335 2.6 4.3 0.00 0.00 0.00 62 1015.0
20260503022339 45 346 0.9 2.6 0.00 0.00 0.00 61 1014.9
20260503021911 46 26 0.9 3.5 0.00 0.00 0.00 61 1014.9
20260503021549 45 68 0.0 3.5 0.00 0.00 0.00 61 1015.2
20260503021343 46 68 1.7 3.5 0.00 0.00 0.00 60 1014.9
20260503020836 46 315 0.0 2.6 0.00 0.00 0.00 60 1014.8
20260503020348 46 314 0.9 2.6 0.00 0.00 0.00 59 1014.7
20260503020039 46 316 0.0 1.7 0.00 0.00 0.00 59 1015.1
20260503015838 46 316 0.9 1.7 0.00 0.00 0.00 58 1014.8
20260503015350 47 316 0.0 2.6 0.00 0.00 0.00 58 1014.8
20260503014847 47 316 1.7 2.6 0.00 0.00 0.00 57 1014.8
20260503014538 46 355 0.0 2.6 0.00 0.00 0.00 57 1015.0
20260503014338 47 336 0.9 2.6 0.00 0.00 0.00 57 1014.7
20260503013352 47 36 0.9 4.3 0.00 0.00 0.00 57 1014.5
20260503013047 47 10 1.7 4.3 0.00 0.00 0.00 56 1014.7
20260503012846 47 342 2.6 4.3 0.00 0.00 0.00 56 1014.4
20260503012339 47 41 0.9 3.5 0.00 0.00 0.00 57 1014.4
20260503011912 48 62 0.9 6.1 0.00 0.00 0.00 57 1014.3
20260503011558 47 35 2.6 6.1 0.00 0.00 0.00 56 1014.5
20260503011344 48 59 1.7 6.1 0.00 0.00 0.00 56 1014.2
20260503010835 48 305 0.9 2.6 0.00 0.00 0.00 55 1014.1
20260503010009 48 360 1.7 3.5 0.00 0.00 0.00 55 1014.2
20260503005908 48 294 0.9 6.1 0.00 0.00 0.00 56 1014.0
20260503005339 48 355 2.6 6.1 0.00 0.00 0.00 55 1013.9
20260503004851 48 70 1.7 2.6 0.00 0.00 0.00 55 1013.8
20260503004507 48 334 0.0 4.3 0.00 0.00 0.00 55 1014.0
20260503004404 49 334 0.0 4.3 0.00 0.00 0.00 55 1013.6
20260503003854 49 338 2.6 4.3 0.00 0.00 0.00 54 1013.5
20260503003346 49 305 0.9 4.3 0.00 0.00 0.00 54 1013.4
20260503003053 49 277 0.9 2.6 0.00 0.00 0.00 53 1013.5
20260503002839 49 339 1.7 2.6 0.00 0.00 0.00 54 1013.3
20260503002411 49 46 0.9 3.5 0.00 0.00 0.00 54 1013.2
20260503001842 50 35 1.7 2.6 0.00 0.00 0.00 54 1013.2
20260503001535 49 76 0.9 2.6 0.00 0.00 0.00 54 1013.5
20260503001334 50 306 0.9 2.6 0.00 0.00 0.00 54 1013.1
20260503000848 50 24 0.9 2.6 0.00 0.00 0.00 53 1013.1
20260503000341 50 39 0.9 7.0 0.00 0.00 0.00 53 1013.0
20260502235849 50 24 3.5 7.0 0.00 0.00 0.00 52 1012.9
20260502235342 50 36 0.9 2.6 0.00 0.00 0.00 52 1012.8
20260502234855 51 30 0.9 3.5 0.00 0.00 0.00 51 1012.8
20260502234549 50 29 0.9 3.5 0.00 0.00 0.00 51 1013.0
20260502234348 51 72 1.7 3.5 0.00 0.00 0.00 51 1012.7
20260502233844 51 48 2.6 6.1 0.00 0.00 0.00 51 1012.6
20260502233057 51 18 0.0 4.3 0.00 0.00 0.00 50 1012.7
20260502232852 51 18 0.9 4.3 0.00 0.00 0.00 50 1012.5
20260502232345 51 42 2.6 4.3 0.00 0.00 0.00 50 1012.4
20260502231837 52 328 1.7 4.3 0.00 0.00 0.00 51 1012.4
20260502231550 51 30 0.9 2.6 0.00 0.00 0.00 51 1012.6
20260502231350 52 30 0.9 0.0 0.00 0.00 0.00 51 1012.3
20260502230841 52 63 0.9 1.7 0.00 0.00 0.00 51 1012.4
20260502230415 52 63 0.0 2.6 0.00 0.00 0.00 51 1012.4
20260502230044 52 63 0.9 4.3 0.00 0.00 0.00 50 1012.5
20260502225843 52 18 0.9 4.3 0.00 0.01 0.00 49 1012.3
20260502225356 52 64 2.6 4.3 0.00 0.01 0.00 49 1012.3
20260502224907 52 34 1.7 3.5 0.00 0.01 0.00 49 1012.3
20260502224539 52 337 1.7 3.5 0.00 0.01 0.00 47 1012.4
20260502224339 53 347 2.6 3.5 0.00 0.01 0.00 47 1012.2
20260502223851 53 308 0.9 4.3 0.00 0.01 0.00 47 1012.3
20260502223344 53 29 0.9 4.3 0.00 0.01 0.00 47 1012.2
20260502223037 53 55 1.7 4.3 0.00 0.01 0.00 47 1012.4
20260502222837 53 67 1.7 4.3 0.00 0.01 0.00 47 1012.1
20260502222350 53 11 2.6 4.3 0.00 0.01 0.00 46 1012.1
20260502221902 53 5 0.9 4.3 0.00 0.01 0.00 45 1012.2
20260502221555 53 5 0.9 6.1 0.00 0.01 0.00 45 1012.3
20260502221354 54 360 1.7 6.1 0.00 0.01 0.00 45 1012.1
20260502220848 54 5 3.5 6.1 0.00 0.01 0.00 45 1012.0
20260502220400 54 5 1.7 3.5 0.00 0.01 0.00 44 1011.9
20260502220050 53 327 0.9 3.5 0.00 0.01 0.00 43 1012.1
20260502215849 54 342 1.7 3.5 0.00 0.01 0.00 43 1011.9
20260502215343 54 9 1.7 3.5 0.00 0.01 0.00 43 1011.9
20260502214854 54 327 1.7 4.3 0.00 0.01 0.00 42 1012.0
20260502214547 53 5 1.7 4.3 0.00 0.01 0.00 43 1012.2
20260502214347 54 314 2.6 4.3 0.00 0.01 0.00 43 1011.9
20260502213839 54 74 1.7 4.3 0.00 0.01 0.00 43 1011.9
20260502213352 54 332 1.7 5.2 0.00 0.01 0.00 42 1011.9
20260502213045 53 36 2.6 5.2 0.00 0.01 0.00 42 1012.1
20260502212845 54 332 2.6 5.2 0.00 0.01 0.00 41 1011.9
20260502212337 54 37 1.7 4.3 0.00 0.01 0.00 42 1012.0
20260502211850 54 329 1.7 5.2 0.00 0.01 0.00 42 1011.9
20260502211554 54 325 1.7 5.2 0.00 0.01 0.00 43 1012.1
20260502211347 54 50 1.7 4.3 0.00 0.01 0.00 42 1011.9
20260502210839 55 327 2.6 4.3 0.00 0.01 0.00 41 1011.9